Torna al catalogo

STARLINK-38263

AttivoComunicazioniSSO
NORAD 100264·PAYLOAD·🇺🇸 United States

Lanciato Aug 8, 2026 da Vandenberg Space Force Base

Loading…

Prossimi Passaggi (prossime 24 ore)

TLE

AggiornatoSource: Space-Track

Epoca: Sep 14, 2026, 15:49 UTC

1 A0264U 26181U   26257.65909575  .00185256  00000-0  12166-2 0  9993
2 A0264  97.2835 301.0091 0001476 101.2146 258.9285 15.75181949  7034

Traccia STARLINK-38263 in tempo reale con AllMySat

Download on the App Store